Wilkes Barre Scranton International Airport
KAVP : now visible

Airfield :











YOU CAN JOIN US ON...

 
LOGIN :

Register | Disclaimer

   EN    FR    IT 

 









Legend :    VFR   Marginal VFR   IFR   Intensive IFR   Very Intensive IFR
Visi :
Ceiling :
>= 8 km
>= 3000ft
5 to 8 km
1000 to 3000 ft
1500m to 5 km
500 to 1000 ft
800 to 1500m
200 to 500 ft
< 800m
< 200 ft
Symbols :   Thunderstorms  Fog  Heavy snow  Heavy precipitations  Wind > 20 kt






- Airport Elevation : 962 ft
- IATA code : AVP


KAVP - Wilkes Barre Scranton International

CURRENT METAR :
  • 230154Z 33016G22KT 10SM OVC060 00/M08 A2987 RMK AO2 SLP120 T00001078

EXPIRED METARs :
  • 230054Z 34013G20KT 10SM OVC060 01/M07 A2985 RMK AO2 SLP115 T00061072
  • 222354Z 33009KT 10SM SCT050 OVC060 01/M07 A2984 RMK AO2 SLP111 60000 T00111072 10044 20011 53016

TAF KAVP
Valid from the 23 at 00:00 until the 24 at 00:00 UTC


222338Z 2300/2324 31010G18KT P6SM BKN035
FM230300 30011G19KT P6SM BKN060
FM232100 31014G25KT P6SM BKN080
KZNY FIR / North America



MET'MAP, your aeronautical weather chart ! - Copyright ORBIFLY December 2007 - Disclaimer

ORBIFLY MET'MAP TEAM :

Programming & Development : Alexandra Zaïnal
Concept & original design : Baudouin d'Aumeries
Assistance for programming : Marc-Olivier Méhu
Technical & hardware support : Manuel Goepfert

Contact : metmap@orbifly.com




SOURCES & CREDITS :

   NOAA       Earth
Advisory